Location: Aurora Center
(43.5271°N, 98.5894°W)
Time: 00:43:55
(UTC-05:00)

BlueWalker 3 - Pass Details

Date: 25 June 2024
Orbit: 480 x 492 km, 53.2° (Epoch: 15 July)

Event Time Altitude Azimuth Distance (km) Brightness Sun altitude
Rises 01:24:17 0° 307° (NW) 2,540 6.1 -23.0°
Reaches altitude 10° 01:26:38 10° 318° (NW) 1,658 5.2 -23.1°
Maximum altitude 01:29:59 30° 22° (NNE) 878 3.7 -23.1°
Enters shadow 01:33:03 12° 84° (E) 1,560 4.5 -23.1°
